Theta_e
322 322 321 321 321 321 321 321 321 321 321 322 322 323 324 324 325 325 325 325 325 325 325 326 326 326 326 326 326 327 327 327 327 327 327 327 327 327 327 327 327 327 327 327 327 327 326 326 326 326 326 325 324 324 324 324 323 322 322 321 321 320 319 319 319 319 320 321 320 321 320 320 319 319 319 319 319 319 318 318 318 318 318 318 317
322 322 322 322 322 322 322 321 321 322 321 321 322 323 324 324 324 324 325 325 325 325 325 325 326 326 326 326 326 326 327 327 327 327 327 327 327 327 327 327 327 327 327 327 327 327 327 326 326 326 326 325 325 324 324 324 323 322 322 321 321 321 320 319 319 319 319 320 320 320 321 320 320 319 319 319 319 319 318 318 318 318 318 318 318
323 323 322 323 323 323 323 323 322 322 321 321 322 323 323 323 323 324 325 326 325 325 325 325 325 326 326 326 326 326 326 326 327 327 327 327 327 327 327 327 327 327 327 327 327 327 326 326 326 326 326 326 325 324 325 324 323 323 322 322 321 321 320 319 319 319 319 319 319 320 320 320 320 319 319 319 319 319 318 318 318 317 317 317 317
322 324 323 323 323 322 323 323 323 323 322 322 322 323 323 323 324 325 326 326 325 325 325 325 325 325 325 326 326 326 326 326 327 327 327 327 327 327 327 327 327 327 327 327 327 327 327 326 326 326 326 326 325 325 325 324 324 323 322 322 321 321 321 320 319 320 320 319 320 320 319 319 319 319 319 318 318 318 318 318 318 317 316 316 317
320 322 323 323 323 323 323 323 324 323 323 323 323 324 324 324 325 326 326 325 324 324 324 324 325 325 325 326 326 326 326 326 327 327 327 327 327 327 327 327 327 327 327 327 327 327 326 326 326 326 326 326 325 325 325 325 324 323 322 321 322 321 321 320 320 320 320 320 320 320 319 319 319 319 318 318 318 318 319 318 318 317 316 316 316
318 319 319 319 320 321 322 323 324 324 324 324 324 325 325 325 325 325 324 323 322 321 320 321 322 324 325 325 325 326 326 326 327 327 327 327 327 327 327 327 327 327 327 327 327 326 326 326 326 326 326 326 325 325 325 325 325 324 323 323 322 322 322 321 321 321 320 321 320 320 320 320 319 319 319 318 319 319 319 318 317 317 316 316 315
317 317 317 317 317 317 318 319 321 322 322 322 322 322 322 321 321 320 320 319 317 317 317 317 319 322 324 324 325 325 326 326 327 327 327 327 327 327 327 327 327 327 327 327 327 326 326 326 326 326 326 326 326 325 325 325 325 325 324 324 324 323 323 323 322 322 321 321 321 321 321 320 320 320 319 319 319 319 319 318 318 317 317 316 316
314 316 316 316 316 315 315 316 316 316 317 316 317 316 316 315 315 315 315 315 314 314 315 316 318 321 322 323 324 324 325 325 326 326 326 327 327 327 327 327 327 327 327 327 327 327 327 326 326 326 326 326 326 326 326 325 325 325 325 325 324 324 324 323 323 322 322 322 321 321 321 321 320 320 320 320 319 319 319 319 318 318 317 317 316
312 315 315 315 315 315 315 315 315 315 315 315 315 315 314 315 314 314 314 314 314 314 314 315 317 319 320 322 322 323 323 323 323 324 325 326 326 327 327 327 327 327 327 327 327 327 326 326 326 326 326 326 325 325 325 325 325 325 325 325 325 324 324 324 323 322 322 322 321 321 320 320 320 320 320 320 320 319 318 318 318 317 317 316 316
310 314 316 315 315 316 316 316 316 316 316 316 315 315 316 315 316 316 316 316 316 315 314 314 315 316 317 319 320 321 321 321 321 322 323 325 326 326 326 326 326 327 327 326 326 326 326 326 326 325 325 325 325 324 324 324 324 325 325 325 324 324 323 323 322 322 321 321 321 321 320 320 320 320 320 319 319 319 318 318 318 317 317 316 316
310 313 316 316 316 317 317 317 317 317 317 317 316 316 316 316 316 316 316 317 317 316 315 314 313 314 314 316 318 319 319 320 320 321 323 324 325 325 326 326 326 326 326 326 326 326 325 325 324 324 324 324 323 323 323 323 323 323 323 323 322 322 321 321 320 320 320 320 320 320 320 320 320 320 320 319 319 319 319 319 318 317 317 317 317
310 313 317 317 317 317 318 318 318 318 318 318 318 317 317 317 316 316 316 317 317 317 316 315 313 312 313 314 315 317 318 319 319 321 323 324 324 325 325 326 326 326 326 325 325 325 324 324 324 323 323 323 323 323 322 322 322 322 322 321 321 321 321 321 320 320 320 320 319 319 320 320 321 321 320 320 320 319 319 319 318 317 317 317 317
310 313 316 317 317 317 317 317 318 318 318 318 318 318 318 317 317 316 315 316 316 316 316 315 313 313 313 313 315 316 318 318 319 321 322 324 324 324 324 325 325 325 324 324 324 323 323 323 323 323 323 323 322 322 321 321 322 321 321 321 321 320 320 320 320 319 319 319 319 319 319 319 319 320 319 319 319 319 318 318 317 317 318 318 317
311 313 315 316 317 317 317 317 318 318 318 319 319 319 318 318 317 316 315 314 315 315 315 315 314 314 314 314 315 316 318 319 320 321 322 323 323 322 322 323 323 323 323 323 323 323 323 323 323 323 322 322 322 321 321 321 322 321 321 321 320 320 319 318 317 317 317 317 317 318 318 318 318 318 317 317 317 317 317 316 316 316 317 317 317
313 314 315 315 316 317 317 317 318 318 319 319 319 319 318 318 317 316 314 313 313 313 313 314 314 314 315 315 316 317 318 319 320 320 321 321 321 321 321 321 321 321 322 322 322 322 322 322 322 322 322 322 322 321 321 320 320 319 319 318 318 318 317 315 316 317 318 317 317 318 318 318 318 318 317 317 317 317 316 316 316 315 316 316 316
314 315 315 315 316 316 316 317 318 318 319 319 318 318 317 316 315 314 313 312 312 312 312 312 313 314 315 315 316 317 317 318 318 319 319 319 319 319 320 320 320 321 321 321 321 320 321 321 321 321 321 321 320 319 318 317 317 317 318 318 317 318 318 317 317 318 318 318 318 318 318 318 318 318 318 317 316 316 316 314 312 312 313 313 313
314 315 315 315 315 316 316 316 317 318 318 318 317 316 315 314 313 312 312 311 311 311 310 311 311 312 313 314 314 315 316 316 317 317 317 317 317 317 318 318 318 318 318 318 319 319 319 319 319 319 318 317 316 316 316 316 317 318 318 318 317 317 317 316 315 316 316 316 317 317 317 317 317 317 316 315 314 315 315 314 313 313 314 314 313
313 313 314 314 314 314 315 315 315 316 315 315 314 313 312 312 311 311 311 311 311 311 310 310 310 310 311 311 311 312 312 313 313 314 315 315 315 315 315 315 315 315 314 315 315 315 315 315 315 314 314 314 314 315 315 315 315 315 315 314 314 313 313 312 311 312 312 312 312 313 313 314 314 314 314 314 314 314 314 314 314 314 314 314 314
311 312 312 313 313 313 314 314 314 314 313 313 312 312 311 311 311 311 311 311 311 311 310 310 310 310 310 310 310 310 310 310 310 311 311 311 312 312 312 312 312 312 312 312 312 312 312 312 311 311 312 312 312 312 312 312 311 311 310 310 310 310 310 309 309 309 309 310 310 311 311 311 311 311 312 312 313 313 313 312 312 312 312 312 313
310 310 311 311 311 311 311 311 312 312 313 312 312 311 311 311 311 310 310 310 310 310 310 309 309 309 309 309 309 309 308 308 308 308 308 309 309 309 309 309 309 309 309 309 309 310 310 310 310 309 309 309 309 309 309 309 309 309 309 308 309 309 309 309 309 309 309 309 310 310 310 309 309 309 309 309 309 309 309 309 310 311 311 311 311
308 308 308 309 309 309 309 309 309 310 310 310 310 310 310 310 310 310 310 310 309 309 309 308 308 308 308 307 307 307 307 307 307 307 307 307 308 308 308 308 308 308 308 308 309 309 309 308 308 308 308 308 308 309 309 309 309 309 308 308 308 308 308 308 308 308 308 308 308 308 308 307 307 307 307 307 306 306 306 307 308 309 310 310 310
307 307 307 307 307 307 308 308 307 307 308 308 308 308 308 308 308 308 308 308 308 308 307 307 306 306 306 305 305 305 306 306 306 306 306 306 306 307 307 307 307 307 307 307 308 308 308 308 307 308 308 308 308 308 308 308 308 308 307 307 307 306 306 306 306 306 307 307 307 307 307 307 306 306 305 305 305 304 304 305 305 306 307 308 309
306 306 306 305 305 306 306 306 306 306 306 306 306 306 306 306 306 306 306 306 306 306 305 305 305 304 304 303 303 303 303 303 304 304 304 304 304 305 305 305 306 306 306 306 306 306 306 306 306 306 306 306 306 306 306 306 306 306 306 306 306 306 305 305 305 305 306 306 306 307 307 306 306 306 305 305 304 304 304 303 303 303 304 305 306
303 303 303 303 303 303 303 303 303 303 303 302 303 303 303 303 303 303 303 303 303 303 303 302 302 302 302 301 301 301 301 301 301 301 301 302 302 302 302 302 303 303 303 303 304 304 304 304 304 304 304 304 304 304 304 304 304 304 304 305 305 305 305 305 305 305 305 305 306 306 306 306 305 305 305 305 304 304 303 303 302 302 302 303 304
300 300 301 301 301 301 301 301 301 301 301 301 301 301 301 301 301 301 301 301 301 301 301 301 301 301 301 301 301 301 301 301 301 301 301 301 301 301 301 301 301 301 301 301 302 302 302 302 303 303 303 303 303 303 303 303 303 303 303 304 304 304 304 304 304 304 304 305 305 305 305 305 305 305 305 304 304 304 304 303 302 302 302 302 303
299 299 299 300 300 300 300 300 301 301 301 301 301 301 301 301 301 301 301 301 301 300 300 300 300 300 300 301 301 301 301 301 301 301 301 301 301 301 301 301 301 301 301 302 302 302 302 301 301 302 302 302 302 302 302 302 302 303 303 303 304 304 304 305 305 305 305 305 306 306 306 306 305 305 305 305 304 304 304 304 303 303 303 302 302
298 299 299 299 299 299 300 300 300 300 301 301 301 301 301 301 301 301 302 302 302 302 301 301 301 301 301 301 301 301 301 301 301 302 302 302 302 302 301 301 301 301 302 302 302 302 302 302 302 302 302 302 302 302 301 301 302 302 302 303 303 304 305 305 305 305 305 306 306 306 306 306 306 306 306 306 306 305 304 304 303 303 303 302 302
297 297 298 298 298 298 298 298 298 298 298 298 299 299 300 300 301 302 302 302 303 303 303 303 303 303 303 303 302 302 303 303 303 303 304 304 304 303 303 302 302 302 302 302 302 301 302 302 302 302 302 302 302 302 302 302 302 302 302 302 302 303 303 304 304 304 304 305 305 305 306 306 306 306 306 306 306 306 305 304 304 303 302 302 302
297 297 297 298 298 298 299 299 299 299 298 298 298 298 298 298 298 299 300 301 301 301 301 302 302 302 303 303 303 303 303 303 303 303 303 303 303 303 303 303 303 302 302 302 302 301 301 301 301 301 301 301 301 302 302 303 303 303 303 303 303 302 302 302 302 302 303 303 303 304 304 305 305 305 306 306 306 306 305 304 303 302 301 301 301
298 298 298 299 299 300 300 301 301 301 301 301 300 300 299 298 297 296 297 297 297 297 298 298 298 299 300 300 301 301 301 301 301 301 301 301 301 301 302 301 300 299 298 298 298 298 298 298 298 298 298 298 299 299 299 300 300 301 301 301 302 302 302 302 302 302 302 302 302 302 302 303 303 304 304 305 305 305 305 304 303 302 301 300 300
299 299 300 300 300 300 301 301 301 302 302 302 302 301 301 300 299 298 297 296 296 295 295 295 295 296 297 297 297 297 297 298 298 298 298 298 297 297 297 296 296 295 294 294 294 294 294 294 294 294 295 295 295 295 296 296 296 297 297 298 298 298 299 300 301 301 301 301 301 301 301 301 301 302 302 303 303 304 303 303 302 302 301 299 299
300 301 301 301 301 301 301 301 301 301 300 300 300 300 301 300 300 299 299 298 298 297 296 295 294 293 293 294 294 294 294 295 295 295 295 295 295 294 294 293 293 293 293 293 293 293 293 293 293 293 293 293 293 293 293 293 293 294 294 294 294 295 295 296 297 298 299 299 299 300 300 300 300 300 300 300 300 301 301 301 301 301 301 300 300
301 301 301 300 300 300 299 299 298 298 297 296 296 296 297 298 299 299 299 299 299 299 299 298 296 293 291 291 292 292 292 293 292 292 292 292 293 292 292 292 292 292 292 292 292 292 292 292 292 292 292 292 292 292 292 292 292 292 292 292 292 292 293 293 294 294 295 295 296 297 297 298 298 298 298 299 299 299 299 300 300 300 300 300 300
299 299 299 298 297 296 296 295 295 294 294 293 292 292 292 293 293 294 295 296 296 296 296 296 295 293 292 291 291 291 291 291 291 291 291 291 291 291 291 291 291 291 291 291 291 291 291 291 291 290 290 290 290 290 290 290 291 291 291 291 291 291 291 292 292 292 292 293 293 294 294 295 295 296 296 297 297 297 297 298 298 298 298 299 299
297 297 297 296 295 294 293 293 292 292 291 291 291 290 290 290 290 290 291 291 291 291 291 292 292 291 291 291 290 290 290 290 290 290 290 290 290 291 291 291 291 291 291 291 291 290 290 290 290 290 290 289 289 289 290 290 290 290 290 290 290 290 290 290 290 291 291 291 291 291 292 292 292 293 293 294 294 295 295 295 295 295 296 296 296
294 294 293 292 291 291 291 290 290 290 290 290 290 290 290 290 290 289 290 290 290 290 290 290 290 290 290 290 290 290 290 290 290 290 290 290 290 290 290 290 290 290 290 290 290 289 289 289 289 289 288 288 288 288 288 288 288 288 288 288 288 288 288 289 289 289 289 289 289 289 290 290 290 291 291 292 292 292 292 293 293 293 293 293 294
291 290 290 289 288 288 288 288 288 288 289 289 289 289 289 289 289 289 289 289 289 289 290 290 290 290 290 290 290 290 290 289 289 289 289 289 289 289 289 289 289 289 288 288 288 287 287 287 286 286 286 286 286 286 286 286 286 286 286 286 286 286 286 287 287 287 287 287 287 288 288 288 288 288 289 289 290 290 290 290 290 290 291 291 291
288 288 288 287 287 287 287 287 288 288 288 288 288 289 289 289 289 289 289 289 289 289 289 289 289 289 289 289 289 289 289 288 288 288 288 289 288 288 288 288 288 288 287 287 287 286 285 285 284 284 284 284 284 284 284 284 284 284 284 284 284 285 285 285 285 286 286 286 286 286 286 286 286 286 287 287 288 288 288 288 288 289 289 289 290
287 287 287 287 287 287 287 287 287 288 288 288 288 288 288 288 288 288 288 288 288 288 288 288 287 287 287 287 288 288 287 287 287 287 287 287 287 287 287 287 286 286 286 286 286 285 284 284 283 283 283 283 283 283 283 283 283 283 283 283 283 283 284 284 284 285 285 285 285 285 285 285 286 286 286 287 287 287 287 287 288 288 289 289 290
287 287 287 287 287 287 287 287 288 288 288 288 288 288 288 287 287 287 287 287 287 287 286 287 287 286 286 286 286 286 286 286 286 286 285 285 285 285 286 285 285 285 285 284 284 284 284 283 283 283 283 283 282 282 282 282 282 282 282 282 282 283 283 283 283 284 284 284 285 285 285 285 285 286 287 287 287 288 288 288 288 288 288 288 289
286 286 286 286 287 287 287 287 287 287 287 287 287 286 286 286 286 286 286 286 286 286 285 285 285 285 284 284 284 284 284 284 284 284 284 284 284 284 284 284 284 283 283 283 283 283 283 282 282 282 282 282 282 282 281 281 281 281 281 281 282 282 282 282 283 283 284 284 284 284 284 284 284 284 285 286 286 287 287 288 288 289 288 288 288
286 286 286 286 286 286 286 286 286 286 286 286 286 285 285 285 285 285 285 285 285 285 285 284 284 283 283 283 283 283 283 283 283 283 283 282 282 282 282 282 282 282 282 282 282 282 281 281 281 281 281 281 281 281 281 281 280 280 280 280 280 281 281 281 281 282 282 283 283 283 283 283 283 283 283 284 284 285 286 287 287 288 289 289 289
285 285 286 286 286 286 286 286 286 286 286 285 285 285 285 284 284 284 284 284 284 284 284 283 283 283 282 282 282 282 283 283 282 282 282 282 282 282 282 281 281 281 281 281 281 281 281 281 281 281 281 281 280 280 280 280 280 280 279 279 279 279 279 279 280 280 281 281 282 282 282 282 282 282 282 283 283 284 285 285 286 287 288 288 288
284 285 285 285 285 285 285 285 285 285 285 285 285 284 284 284 284 283 283 283 283 283 283 282 282 282 282 282 282 282 282 282 282 282 282 281 281 281 281 281 281 281 281 281 281 281 281 281 281 281 281 280 280 280 280 280 279 279 279 279 278 278 278 278 279 279 279 280 280 280 280 280 281 281 281 282 283 283 284 284 285 285 286 287 287
284 284 284 284 285 285 285 285 285 285 285 285 284 284 284 283 283 283 283 283 282 282 282 282 282 282 282 282 282 282 282 282 282 281 281 281 281 281 281 281 281 281 281 281 281 281 281 280 280 280 279 279 279 278 278 278 278 278 278 278 277 277 278 278 278 278 278 278 279 279 279 279 280 280 280 281 282 282 283 283 284 284 285 285 287
283 283 283 284 284 284 284 284 284 284 284 284 283 283 283 282 282 282 282 282 282 282 282 282 282 282 282 282 282 282 282 281 281 281 281 280 280 280 280 280 280 280 280 280 280 280 279 279 278 278 278 278 277 277 277 277 277 277 277 277 277 277 277 277 277 277 278 278 278 278 278 279 279 279 280 280 281 281 282 283 283 284 284 284 285
282 282 282 282 282 283 283 283 283 283 283 282 282 282 282 282 281 281 281 281 281 281 281 281 281 281 281 281 281 281 281 281 280 280 280 280 280 280 280 280 279 279 279 279 279 279 279 278 278 278 278 278 278 278 278 278 277 277 277 277 276 276 276 277 277 277 277 277 277 277 278 278 278 279 279 280 280 281 281 282 283 283 283 284 284
281 281 281 281 281 281 281 281 281 281 281 281 281 281 281 281 281 281 281 281 281 281 281 281 281 280 281 281 281 280 280 280 280 280 280 280 279 279 279 279 279 279 279 279 279 279 279 279 279 279 279 279 278 278 278 278 278 277 277 277 277 277 276 276 276 276 276 276 276 277 277 277 278 278 279 279 280 280 280 281 281 282 282 283 284
280 280 280 280 280 280 280 280 280 280 280 280 280 280 281 280 280 280 280 280 280 280 280 280 280 280 280 280 280 280 280 280 280 280 280 280 279 279 279 279 279 279 279 279 279 279 279 279 279 279 279 279 279 279 279 278 278 278 278 278 278 277 277 277 277 277 277 277 277 277 277 277 278 278 278 279 279 279 280 280 281 281 282 282 283
280 280 280 280 280 280 280 280 280 280 280 280 280 280 280 280 280 280 280 280 280 280 280 280 280 280 280 280 280 280 279 280 280 280 280 279 279 279 279 279 279 279 279 279 279 279 279 279 279 279 279 279 279 279 279 279 279 279 279 278 278 278 278 278 278 278 278 277 277 277 277 277 278 278 278 278 279 279 279 280 280 281 281 282 282
279 279 279 279 279 279 279 279 279 279 279 279 279 279 279 279 279 279 279 279 279 279 279 279 279 279 279 279 279 279 279 279 279 279 279 279 279 279 279 279 279 279 279 280 280 280 280 280 280 280 280 280 280 280 280 280 280 279 279 279 279 279 279 279 279 278 278 278 278 278 277 277 278 278 278 278 279 279 279 280 280 281 281 281 282
Wind_Speed
30 30 30 30 30 31 33 35 37 38 38 39 40 40 40 39 39 39 40 43 45 45 46 46 46 46 46 45 45 44 44 44 43 44 45 46 45 44 43 43 45 45 43 43 43 44 46 46 45 44 43 45 46 45 44 44 44 44 43 43 43 43 43 44 47 50 48 44 44 42 39 39 40 37 35 34 33 31 31 30 28 26 25 25 26
31 29 28 28 28 29 30 32 35 36 37 38 38 37 36 35 35 37 40 41 42 44 44 44 44 45 46 46 45 44 43 43 42 43 44 45 45 44 43 44 45 45 44 43 43 44 45 46 45 43 42 44 45 43 42 42 42 43 43 42 43 43 43 43 45 47 47 45 43 42 39 39 39 37 35 35 32 30 31 30 29 29 28 26 27
33 30 29 29 28 28 29 31 32 34 35 36 36 35 34 33 34 37 39 39 41 42 42 42 43 44 45 45 45 43 42 42 42 42 43 44 43 43 43 43 44 44 44 44 43 43 44 45 44 42 41 43 43 42 41 41 41 42 43 42 42 42 41 42 44 45 46 45 43 42 40 38 39 37 35 35 33 32 32 31 31 32 32 30 28
33 31 31 30 29 29 30 30 31 32 34 34 35 35 35 35 36 37 38 39 40 40 40 41 42 43 44 44 44 43 42 41 41 42 43 42 42 42 42 43 43 44 44 43 42 42 43 44 43 41 40 41 42 41 40 40 40 41 43 42 42 42 41 41 43 43 45 45 43 41 39 39 38 37 36 35 34 34 33 33 34 35 34 32 28
31 30 30 30 29 29 30 30 30 31 32 33 33 34 36 37 37 37 38 39 39 39 39 39 40 41 42 42 42 41 40 39 40 41 41 41 41 42 42 42 43 43 43 42 42 42 42 43 42 40 40 40 41 40 40 39 39 41 42 41 40 41 40 40 41 42 43 45 44 41 39 39 39 38 37 36 36 36 35 36 36 36 35 32 29
30 28 28 28 27 27 28 29 29 30 31 31 31 31 32 34 35 36 37 38 38 37 37 38 38 39 39 39 39 39 38 38 38 39 39 40 40 41 41 41 41 42 42 41 41 41 41 41 41 40 39 40 40 39 39 38 38 40 41 41 40 39 40 40 40 41 42 43 43 41 39 38 39 38 37 36 37 37 37 37 37 36 35 33 32
30 29 28 28 27 25 25 25 26 27 28 28 28 29 30 32 33 34 35 35 35 35 35 36 36 37 37 37 37 36 36 36 37 37 38 38 39 40 40 40 40 41 41 40 39 39 39 39 39 39 39 38 37 37 37 37 38 39 39 39 39 39 39 39 38 39 40 41 41 41 40 38 37 38 37 36 37 38 38 39 39 37 35 35 35
31 29 28 28 27 25 24 24 24 24 25 26 27 28 29 30 30 31 31 31 32 32 33 34 34 35 36 36 35 34 34 35 35 35 36 37 38 39 39 39 39 39 39 38 37 36 36 36 37 37 37 36 35 34 35 36 36 37 37 37 37 38 38 38 38 38 39 40 41 40 39 38 37 36 36 36 38 40 39 39 40 38 36 36 36
32 30 27 24 23 22 21 20 21 21 22 23 23 24 25 25 26 26 27 27 28 29 30 31 32 33 34 35 35 34 34 35 34 33 34 34 35 36 36 36 37 37 36 36 35 34 34 33 33 33 33 33 32 31 32 32 34 35 35 34 35 36 37 37 37 37 38 40 41 40 39 40 38 37 38 39 40 40 38 38 40 39 37 37 37
33 31 28 23 20 19 18 17 17 18 18 19 20 20 21 22 22 23 24 25 26 26 27 29 30 32 33 34 34 34 34 34 33 32 31 31 32 32 33 34 35 35 35 34 34 33 31 31 30 29 29 29 30 30 31 31 32 33 33 32 33 34 36 36 37 37 38 39 40 39 39 41 40 38 38 38 38 38 38 38 39 39 37 38 38
34 32 30 25 21 19 18 17 16 16 17 17 19 20 21 22 23 23 24 24 24 24 25 26 28 29 31 32 33 34 34 33 31 30 29 29 29 30 31 32 33 33 33 33 32 30 29 29 28 27 28 28 29 29 30 30 30 31 32 32 33 33 35 36 36 36 37 38 38 38 39 41 40 38 38 38 37 38 37 37 38 38 37 38 40
33 31 30 28 25 22 20 19 17 17 17 17 19 20 21 22 24 25 26 25 24 24 24 25 25 26 28 30 31 31 31 29 28 27 27 27 27 28 29 30 31 31 31 31 30 29 28 28 28 28 27 28 28 29 30 30 30 31 32 31 32 33 35 36 36 36 37 38 38 39 39 41 41 40 39 39 39 38 38 38 38 38 37 38 39
33 31 30 29 28 25 23 21 19 18 18 19 19 20 21 22 23 24 26 27 26 26 25 23 23 24 25 27 28 28 28 26 26 26 26 26 27 27 29 29 29 30 29 29 28 28 28 27 27 28 28 27 27 28 30 30 31 31 30 29 31 33 33 34 35 35 37 39 41 42 41 41 42 41 40 39 39 38 38 38 38 38 39 40 41
34 32 31 30 29 27 25 23 21 20 20 20 20 20 21 22 22 23 25 26 27 27 25 24 23 23 23 25 25 26 25 25 25 26 26 27 26 27 28 28 29 29 28 27 26 26 26 26 27 27 27 27 27 28 29 29 30 30 29 29 30 31 31 33 33 32 33 36 40 42 42 40 40 40 38 38 39 39 39 40 40 39 40 42 43
34 33 32 31 30 29 27 25 24 22 21 21 21 21 21 22 23 24 24 25 26 27 26 25 24 23 23 24 25 25 25 25 25 26 27 27 26 26 27 27 27 27 27 25 25 26 26 26 26 27 27 27 26 26 27 28 28 29 30 30 31 31 31 31 30 30 32 34 37 40 40 38 39 40 40 39 40 40 39 40 40 39 39 42 44
34 34 33 32 31 30 29 28 27 25 23 22 21 21 22 23 24 24 24 25 25 25 25 24 23 23 23 24 24 24 24 25 26 26 26 26 25 25 26 26 27 27 27 26 26 27 26 26 26 27 27 27 27 27 28 29 29 29 30 30 30 31 31 30 29 30 32 33 35 36 37 36 37 39 40 39 38 38 39 41 41 39 39 43 46
33 34 34 33 32 31 30 28 27 25 23 23 22 22 22 22 23 23 23 24 24 23 23 22 22 21 21 22 22 22 22 23 24 25 25 25 24 25 26 26 27 27 27 27 28 28 28 28 28 29 30 30 30 31 31 31 31 31 32 32 33 35 35 34 34 35 35 35 36 37 37 37 38 39 39 39 38 37 38 42 43 40 40 42 45
31 32 32 30 29 27 26 25 24 23 23 23 22 21 21 20 20 20 20 20 20 19 19 18 18 18 18 18 19 19 19 20 21 22 22 23 23 24 24 25 25 25 26 27 28 28 29 29 30 30 30 30 31 31 32 33 34 35 36 38 39 39 37 36 37 39 39 39 40 40 41 41 40 41 40 38 36 34 36 39 39 37 40 43 45
26 27 27 26 25 23 23 22 22 22 22 22 22 21 20 19 18 18 17 17 16 15 15 15 14 15 15 15 15 16 16 17 18 19 19 19 20 21 22 22 23 23 24 25 26 27 27 27 27 28 29 30 31 32 33 34 35 35 36 37 38 37 35 35 36 36 36 36 37 38 39 39 39 40 39 37 36 35 37 39 37 35 38 41 41
22 21 21 21 21 20 19 19 19 20 21 21 20 20 20 19 17 16 16 15 14 13 12 12 12 13 13 13 13 13 13 14 15 16 16 17 18 18 19 19 20 20 21 22 22 23 23 24 24 25 26 27 27 28 28 28 29 30 31 32 33 33 33 33 34 34 34 35 35 36 37 37 37 37 37 36 35 34 35 36 35 34 36 38 39
17 16 16 15 15 15 15 15 15 15 15 16 16 16 16 16 16 15 15 14 13 12 12 11 11 12 12 12 11 11 11 12 13 14 14 15 16 17 17 18 18 19 19 19 19 19 19 20 20 21 22 23 24 24 24 25 26 28 29 29 30 30 31 31 31 32 32 33 33 33 34 34 34 34 35 35 35 34 33 33 33 34 35 38 38
14 13 12 12 11 11 11 11 10 9 9 9 10 10 11 11 11 11 11 11 11 10 9 9 8 8 8 7 7 7 7 8 9 11 12 12 14 15 15 16 17 17 17 17 17 17 17 18 19 20 22 23 23 23 23 23 24 25 25 25 25 25 26 27 27 27 28 28 29 30 30 30 30 30 30 31 30 29 28 28 29 31 35 37 38
12 12 11 10 8 8 7 6 5 5 4 3 4 4 4 4 4 4 4 5 6 5 4 4 4 3 1 1 2 2 2 3 3 4 5 6 7 8 9 10 11 12 11 11 11 12 12 13 14 15 16 17 17 17 17 17 18 19 20 21 21 21 22 22 23 23 24 24 25 26 25 25 26 26 26 27 27 26 25 25 25 26 28 32 34
9 9 9 7 6 4 3 2 2 3 4 4 3 4 4 4 5 5 5 5 5 6 6 6 6 6 7 7 7 7 7 6 6 6 5 5 5 4 4 4 4 4 4 4 4 5 6 6 7 9 10 11 11 11 12 13 14 15 16 17 19 19 20 21 21 22 22 23 23 24 24 24 25 25 26 26 26 26 26 25 24 23 23 25 28
7 6 6 5 5 5 6 7 7 8 9 9 9 10 10 9 9 9 9 9 10 11 12 11 11 10 10 10 10 10 10 9 9 9 9 9 9 8 8 8 8 8 8 8 8 7 7 7 7 7 8 9 10 10 10 10 11 12 13 14 16 17 18 19 20 20 21 22 22 23 24 24 24 25 25 25 25 25 25 24 23 22 21 23 25
7 6 6 5 6 6 7 7 6 6 6 6 7 8 9 8 9 9 9 10 10 11 11 11 11 10 10 9 9 9 9 9 10 11 11 12 12 12 12 12 11 11 10 10 9 9 9 9 9 9 9 9 9 9 9 10 10 10 11 12 13 14 15 16 17 18 19 20 21 22 23 24 24 25 25 26 26 26 25 25 25 23 22 22 24
6 6 6 5 5 5 5 5 4 4 4 4 5 4 4 5 4 4 6 7 7 7 7 7 6 6 6 7 7 7 8 9 10 11 12 13 14 15 16 16 16 16 16 15 15 14 12 11 11 11 11 11 10 10 10 10 10 10 11 12 12 13 14 15 17 18 19 20 21 21 22 23 24 25 25 26 27 26 26 26 26 26 24 23 24
4 4 4 4 4 4 4 5 5 5 5 5 5 5 5 6 6 6 6 7 8 8 8 7 7 7 7 6 7 7 8 10 12 13 14 15 16 17 17 18 18 19 19 19 19 18 17 17 16 16 16 15 14 14 13 13 13 13 13 14 15 15 15 17 17 18 20 21 22 22 22 22 23 24 24 25 25 25 25 25 26 26 25 25 27
2 1 1 1 1 1 2 2 3 4 5 5 5 5 6 7 8 8 8 9 9 10 10 10 10 10 10 11 10 10 10 11 12 13 14 15 16 18 18 19 20 20 21 21 20 20 19 19 19 19 19 19 18 18 18 18 17 17 16 17 17 17 18 19 19 20 22 22 23 24 24 24 24 24 25 25 25 25 24 24 25 25 25 26 29
5 6 6 7 8 8 7 6 6 6 6 7 6 6 7 7 7 7 8 9 10 11 12 12 12 12 12 13 13 13 13 14 14 15 16 17 18 19 20 21 21 21 22 22 21 20 20 20 19 19 19 20 20 20 20 20 20 19 19 19 19 19 19 20 20 22 23 23 24 25 25 25 25 25 25 26 26 26 25 25 24 24 25 26 29
9 10 11 13 14 14 13 12 12 12 12 11 9 6 6 6 6 6 6 7 8 9 10 12 13 14 14 14 14 15 15 16 16 16 17 19 20 21 21 21 22 22 22 22 22 21 21 21 20 20 20 20 20 21 21 22 22 22 22 22 20 20 20 20 21 22 23 24 24 25 25 25 26 26 26 26 26 26 26 25 25 25 25 26 27
14 15 16 16 17 17 16 14 13 12 11 11 10 8 6 5 4 5 6 7 7 7 8 10 12 13 14 15 15 15 16 16 17 17 18 19 21 22 22 22 22 23 23 23 23 22 22 22 22 21 21 21 22 22 22 22 23 23 24 24 23 22 22 22 23 24 24 25 25 26 26 25 26 26 26 27 27 27 27 26 25 26 26 26 27
16 17 17 16 15 14 13 11 10 8 8 9 10 10 9 6 4 3 4 6 8 9 10 12 14 15 15 16 17 17 18 18 18 19 19 20 21 22 21 21 21 22 22 22 22 21 21 21 21 21 21 22 22 22 23 23 23 24 24 25 25 24 24 23 24 25 26 26 27 27 27 27 27 27 27 27 27 28 28 27 27 27 27 28 28
13 14 14 13 13 13 12 11 10 9 9 10 12 12 12 11 10 9 8 9 11 12 13 15 16 17 18 19 19 19 19 20 19 20 20 21 21 21 20 19 19 20 20 20 20 20 20 20 21 21 21 22 22 23 24 24 24 25 25 26 26 26 26 26 26 26 26 27 27 28 28 28 28 28 29 29 29 29 30 30 29 29 29 30 30
13 13 14 14 14 14 14 14 14 13 13 14 15 15 14 14 15 15 15 15 15 15 15 15 16 17 19 20 20 20 20 20 19 19 19 19 20 20 19 18 18 18 17 17 18 18 19 20 20 21 21 22 22 23 24 24 25 25 26 26 27 27 28 27 27 27 28 28 28 28 28 28 28 29 29 30 31 31 31 32 31 31 32 32 32
15 16 17 17 17 17 17 17 17 17 17 16 16 16 16 16 16 17 17 17 17 17 17 17 16 17 18 19 20 20 19 19 19 19 18 18 19 19 18 18 17 17 16 16 16 16 17 18 19 20 20 21 22 23 23 24 25 25 26 27 27 27 28 28 28 29 29 29 29 29 29 29 29 29 30 31 32 32 32 33 32 33 33 33 34
16 17 18 19 19 19 19 18 18 18 17 17 17 16 16 16 17 17 17 17 17 18 18 18 17 16 17 18 19 18 17 17 17 17 17 17 17 17 17 17 16 17 17 17 18 18 18 19 19 20 21 22 23 24 25 26 26 26 26 27 26 27 28 28 29 30 30 30 30 30 30 30 30 30 30 31 32 33 33 33 33 33 34 34 34
17 19 20 21 21 20 18 18 18 18 17 17 16 16 16 16 17 17 16 16 16 17 17 17 17 16 16 17 16 15 15 14 14 14 14 14 14 14 14 14 14 15 15 16 17 18 18 19 20 21 22 22 23 23 24 25 25 25 26 26 27 29 29 29 29 29 30 30 30 30 30 31 31 30 30 30 32 32 33 33 34 34 34 34 34
20 22 23 22 21 19 18 17 17 17 17 17 17 17 16 16 16 15 15 14 14 14 14 14 14 14 15 16 16 14 14 13 13 13 13 13 13 12 13 13 13 14 15 16 16 17 18 18 19 20 20 19 20 21 22 23 25 26 26 28 30 31 30 29 30 31 31 32 32 31 31 31 30 30 30 31 32 33 33 34 33 33 34 35 35
22 22 23 22 20 18 18 17 16 16 16 16 16 15 15 15 14 13 13 12 12 12 11 11 10 11 12 13 13 13 13 12 12 12 12 12 12 12 13 13 14 14 15 15 16 16 17 18 18 19 20 21 22 23 24 25 26 27 27 27 28 28 28 28 30 30 30 31 32 32 32 30 29 28 29 30 30 32 34 35 35 34 34 35 35
21 21 20 19 18 17 17 16 15 14 14 14 14 13 13 13 12 11 11 10 9 8 8 7 7 8 8 9 10 10 10 10 10 11 11 12 13 14 14 15 15 15 15 16 16 17 17 18 19 20 21 22 23 23 24 24 24 24 23 23 23 24 26 26 27 27 26 27 28 29 31 31 31 30 31 31 31 32 32 33 34 35 35 34 34
19 19 18 17 16 15 14 14 13 12 12 12 12 12 11 11 10 9 8 7 6 5 4 3 3 4 5 6 7 7 8 9 10 11 12 13 14 15 15 16 16 16 17 17 17 18 18 19 19 20 21 22 23 23 24 25 25 25 25 25 25 27 28 28 28 29 29 29 29 30 31 33 34 34 33 32 32 33 34 34 34 35 35 34 33
16 15 15 14 13 13 12 12 11 11 11 11 10 10 9 8 7 6 5 3 1 1 2 3 4 4 5 6 7 8 9 10 11 12 14 14 15 16 16 17 17 17 17 17 17 17 18 18 19 19 19 20 21 22 23 24 25 26 27 28 29 30 30 31 31 31 31 32 32 33 35 36 38 38 36 33 30 31 32 33 34 35 36 36 36
13 12 11 11 10 10 10 10 9 8 8 8 8 8 7 6 4 3 1 1 3 5 6 7 7 8 8 8 9 10 11 12 13 14 14 15 15 16 17 17 17 17 16 17 16 16 17 17 17 17 17 17 18 18 19 20 21 22 24 26 28 29 30 32 33 34 35 36 37 38 39 40 40 40 39 36 34 33 33 33 33 33 34 35 36
9 9 8 8 7 7 7 6 6 6 5 5 5 4 4 2 2 2 3 5 6 8 8 9 9 9 10 10 10 11 12 13 13 14 15 15 16 17 17 18 18 19 19 19 19 19 19 19 20 20 20 20 19 19 19 19 20 21 22 23 25 27 28 30 32 33 35 36 38 40 41 42 42 41 39 38 37 37 37 37 37 36 36 35 35
5 4 4 4 4 4 4 3 3 3 3 3 3 3 4 5 5 6 7 7 8 9 9 9 9 9 9 9 10 11 11 12 13 14 15 16 17 18 19 19 20 21 22 23 23 24 24 24 24 24 24 24 24 24 24 23 23 23 23 23 24 25 26 28 29 31 32 34 36 38 39 41 42 41 41 40 39 39 39 39 39 39 39 39 38
1 2 2 3 3 4 4 5 5 5 6 6 6 7 7 7 7 7 7 7 7 7 7 8 8 8 8 8 9 10 11 12 13 14 15 16 17 18 19 20 21 22 23 24 25 25 26 26 26 26 26 26 26 26 26 26 25 25 24 24 24 24 25 26 28 29 30 31 33 35 37 39 40 40 40 40 39 39 39 39 38 38 38 38 39
3 4 4 4 5 6 7 7 7 7 8 7 7 7 7 7 6 5 5 5 5 5 5 6 6 6 7 8 8 9 10 11 12 13 14 15 16 17 18 19 20 21 22 22 23 24 24 25 25 26 26 26 27 26 26 26 26 25 24 24 24 25 26 28 29 29 30 30 31 33 34 36 38 38 39 39 38 38 39 39 38 37 36 35 36
3 4 4 4 5 5 6 6 6 6 6 5 5 4 4 4 3 2 2 3 3 3 4 4 5 6 6 7 8 9 10 10 11 12 13 14 15 16 17 18 19 19 20 21 21 22 22 23 24 24 25 25 25 25 24 24 25 24 24 25 25 26 26 27 28 28 29 29 31 32 32 34 35 36 37 37 37 37 38 38 37 37 36 35 34
2 2 2 2 2 3 3 3 3 3 3 2 2 2 1 1 1 0 1 1 2 3 3 4 5 6 7 7 8 9 10 10 11 12 13 14 15 15 16 17 18 18 19 20 20 21 21 22 23 23 24 24 24 25 24 24 24 25 25 25 25 25 26 26 27 27 27 28 30 30 31 32 33 34 34 34 34 35 35 35 35 35 34 34 33
2 1 1 1 0 1 1 1 1 1 1 1 1 2 2 1 1 2 2 2 3 3 4 5 5 6 7 8 9 9 10 11 11 12 13 14 14 15 16 16 17 18 18 19 20 20 21 22 23 23 24 24 25 25 25 25 25 25 25 25 26 26 26 27 27 27 27 27 28 29 29 29 29 30 30 30 30 30 30 30 31 31 31 31 31
Wind_Direction
292 281 276 273 272 273 275 278 280 280 279 275 273 272 271 270 271 273 274 274 273 273 272 272 272 272 272 273 273 273 273 273 274 273 271 271 271 271 271 269 268 268 269 269 268 268 268 268 268 270 270 269 268 268 269 270 269 268 267 267 266 264 263 259 258 263 272 278 279 281 284 284 283 282 283 285 286 286 287 287 285 280 270 258 252
297 285 279 275 272 274 276 277 278 279 277 274 271 270 269 268 271 272 272 272 272 272 272 271 271 272 271 272 272 272 273 273 273 273 271 271 271 272 271 269 268 268 268 269 269 269 268 268 269 270 270 269 268 268 270 270 268 267 267 266 266 266 265 262 260 262 268 275 279 281 283 283 282 283 284 285 286 287 288 288 287 287 283 271 255
300 289 281 276 273 273 273 273 274 275 274 272 269 268 268 269 270 270 270 271 271 271 271 271 271 271 271 271 271 271 272 273 272 272 271 271 272 272 272 270 269 269 269 270 271 270 269 269 269 270 271 269 268 269 271 271 268 267 267 267 267 268 268 266 264 262 266 272 278 281 282 283 283 283 285 288 288 288 288 290 290 291 292 284 267
302 291 284 278 273 270 268 268 271 272 272 271 269 269 269 269 269 268 269 269 269 269 270 270 270 270 270 270 270 270 270 271 271 271 271 271 271 272 272 271 271 270 271 271 272 271 270 270 270 271 272 270 270 270 270 270 269 268 267 266 267 269 270 269 267 266 267 269 274 280 282 283 284 285 287 288 288 288 290 292 293 293 293 288 277
305 294 287 281 275 270 267 268 270 271 272 272 272 271 271 270 268 268 268 268 268 269 269 269 269 269 268 269 269 269 270 271 271 271 271 272 272 272 271 271 271 271 272 272 272 271 271 271 272 272 272 271 270 270 270 271 270 269 267 267 269 271 272 271 269 269 268 268 271 277 281 283 284 286 287 287 288 289 290 290 290 291 291 289 283
310 299 292 287 282 277 274 272 271 273 273 273 273 272 270 269 268 268 268 269 269 270 270 270 269 267 267 267 268 269 270 270 270 271 272 272 272 271 271 271 271 271 272 272 272 272 272 272 273 273 272 272 271 271 271 272 271 270 269 269 270 271 273 272 271 270 269 270 272 274 276 279 281 283 285 287 287 287 287 287 287 288 289 288 287
315 305 297 293 290 287 282 278 273 271 271 270 269 267 265 264 265 265 267 268 269 271 271 271 270 268 266 265 266 267 268 269 270 270 271 271 271 271 271 271 271 271 271 272 272 273 273 273 273 273 272 272 273 273 273 272 272 272 271 271 271 272 272 272 272 271 271 271 272 272 273 276 278 281 283 285 284 283 283 284 285 286 288 288 287
316 311 302 295 291 288 282 278 275 271 269 267 264 263 262 262 263 264 266 267 269 270 271 271 271 269 267 265 264 265 265 266 266 267 268 269 270 270 270 271 271 271 271 272 272 272 273 273 273 273 273 274 274 274 274 273 273 273 273 273 273 272 271 271 271 270 270 271 270 270 271 272 273 276 279 279 277 278 280 282 284 286 286 287 286
313 312 305 296 289 285 279 276 275 273 271 269 267 265 265 265 266 267 268 270 270 271 270 270 269 268 266 265 264 263 263 263 263 264 265 267 268 269 270 270 270 270 270 270 271 271 271 272 272 273 274 274 274 274 273 273 273 272 273 273 272 272 271 271 269 269 269 268 268 268 268 267 268 271 273 273 274 277 281 282 283 285 287 287 286
307 308 304 295 286 283 280 278 278 278 279 278 276 275 273 272 272 272 271 272 273 273 272 270 269 267 266 265 263 262 262 261 261 262 262 264 266 267 268 268 269 269 269 269 269 269 270 271 271 272 272 272 272 271 270 269 270 271 272 271 271 271 271 270 268 267 266 265 266 266 266 266 267 269 271 274 277 279 281 281 283 286 288 287 285
302 302 299 293 286 283 282 281 282 283 284 285 285 285 284 283 281 279 277 275 275 275 274 272 270 268 266 265 263 261 261 260 260 260 261 262 263 263 264 266 267 267 267 267 267 267 268 268 268 268 267 268 268 268 267 267 268 269 270 269 268 268 268 267 266 266 265 265 266 265 265 267 270 270 273 276 277 278 280 281 284 285 285 285 285
297 295 293 288 284 283 283 283 283 284 284 285 286 287 288 288 288 286 283 279 276 274 273 271 269 267 265 263 261 260 259 258 257 258 258 258 257 257 259 261 263 264 265 265 265 265 264 264 264 264 264 265 266 266 265 265 266 266 266 267 266 266 265 265 266 267 266 265 266 266 265 269 272 272 273 276 277 278 280 282 283 284 283 283 283
293 288 284 281 278 278 279 278 278 280 281 283 284 285 287 287 288 288 286 284 280 277 274 271 268 264 261 260 259 258 257 256 254 254 254 254 253 253 254 256 258 259 261 261 261 261 261 262 263 263 263 264 266 266 266 266 266 266 266 268 269 267 265 264 265 266 267 266 267 267 267 269 271 272 276 279 279 279 280 281 283 284 283 282 284
288 283 277 275 273 271 270 269 271 274 277 279 281 282 284 285 285 286 285 284 282 279 275 271 267 262 259 257 256 255 254 252 250 249 250 250 251 251 251 252 253 254 255 256 257 258 259 260 262 263 264 265 267 268 268 267 267 267 266 267 267 267 267 265 262 263 266 267 267 268 269 270 273 277 280 280 278 277 279 281 283 282 283 285 287
284 277 271 270 269 267 266 266 267 269 271 273 276 277 279 280 280 281 279 278 277 275 273 270 267 263 259 256 254 253 251 250 248 248 248 249 250 250 251 250 250 250 250 251 252 253 255 256 260 262 263 264 265 267 267 268 268 269 269 267 266 267 267 266 263 262 264 265 267 270 270 271 275 278 277 275 274 277 280 282 283 283 284 285 283
279 273 268 267 267 266 266 266 266 266 267 269 272 274 276 276 276 276 274 272 270 269 268 267 265 263 261 259 258 256 254 253 252 251 250 250 249 249 249 249 248 247 247 246 247 248 250 252 254 257 258 259 261 264 266 267 266 265 264 263 263 264 264 264 263 262 262 262 263 266 268 269 272 273 272 273 276 278 280 279 278 278 279 279 279
275 271 268 267 267 266 265 264 265 265 267 269 271 272 273 273 274 274 273 271 269 267 267 267 267 267 266 265 264 263 261 260 259 258 256 254 253 252 252 251 250 249 247 247 246 246 246 248 250 253 255 256 258 260 261 260 259 257 258 259 260 261 262 263 263 262 261 260 260 261 262 263 265 266 269 273 275 276 275 272 270 270 271 273 276
272 270 268 266 265 264 264 264 265 266 268 269 270 270 270 270 271 271 270 271 271 270 271 272 272 273 272 270 268 266 265 264 262 262 261 261 260 259 259 258 257 256 255 253 252 251 250 251 252 255 256 257 258 259 259 259 259 259 260 261 261 262 263 265 265 264 263 262 262 261 261 262 263 264 266 267 266 266 267 268 270 271 271 272 275
269 268 268 267 266 266 266 266 266 266 267 267 268 268 268 266 267 266 266 267 268 269 271 272 273 272 271 270 268 265 265 264 263 263 263 263 262 261 261 262 261 262 261 260 259 258 258 259 259 260 261 261 261 261 261 262 262 262 263 263 264 266 268 268 268 268 267 266 265 264 263 263 263 263 263 261 259 259 261 264 267 270 270 272 275
266 265 267 268 269 269 269 269 269 267 266 266 265 266 266 264 264 263 262 262 261 262 263 264 266 267 267 267 266 266 266 267 267 268 268 266 265 264 264 265 265 265 265 265 266 266 266 266 265 265 265 264 263 263 263 263 264 264 265 265 267 268 269 269 268 269 270 270 269 269 269 268 267 266 265 263 262 261 261 261 261 263 267 271 274
265 266 268 269 270 273 275 276 275 272 269 268 266 267 267 266 266 265 263 261 259 258 259 261 262 264 267 271 272 272 273 274 274 275 274 271 270 270 270 270 270 270 270 271 272 272 270 269 267 265 264 263 262 262 261 262 263 265 267 268 270 271 271 272 272 272 272 273 274 275 275 275 275 274 272 270 269 268 266 261 257 256 259 263 267
269 269 271 271 272 274 276 277 278 275 273 272 269 267 266 266 266 265 263 260 257 254 255 257 258 262 270 279 285 285 286 285 285 285 284 280 277 276 276 275 275 275 276 277 277 276 274 272 270 268 266 266 266 266 266 266 267 269 271 274 276 277 277 278 279 279 279 279 280 280 280 281 281 280 278 277 277 277 274 270 264 259 256 255 257
267 265 264 266 267 268 267 265 265 267 270 274 267 252 246 244 240 237 235 235 234 226 217 217 218 218 208 40 18 6 355 332 320 314 308 299 290 287 286 284 282 282 284 285 286 285 283 280 278 278 278 279 280 281 281 281 279 278 279 281 282 284 284 285 286 287 287 287 288 289 290 290 289 288 287 286 286 285 283 280 277 271 262 257 255
253 249 245 242 233 222 204 170 155 133 114 104 109 120 121 121 126 125 122 127 132 126 120 117 114 108 100 91 82 72 64 56 50 46 39 31 22 10 3 356 347 343 342 342 336 322 313 307 303 302 302 301 302 303 302 300 298 296 295 293 293 294 295 296 297 298 298 299 301 302 303 303 301 300 298 296 293 290 286 283 282 278 271 265 259
235 228 218 201 176 156 136 124 117 110 106 103 101 100 99 100 104 104 103 107 109 108 108 105 100 96 92 87 78 66 55 45 39 37 36 35 33 30 30 29 28 31 32 32 31 23 10 2 354 345 336 329 326 327 326 321 318 314 310 307 306 306 307 307 307 307 309 311 312 312 313 314 312 309 307 305 301 296 292 289 285 281 278 274 268
215 206 195 174 151 140 133 124 113 102 98 93 87 86 84 83 85 86 87 91 94 99 103 103 100 96 90 81 66 49 34 22 14 9 7 9 7 6 6 5 5 7 9 12 15 14 10 8 4 359 357 353 348 348 345 342 339 334 329 325 322 320 319 319 318 318 320 320 319 320 322 321 319 316 315 312 309 306 302 296 290 286 282 279 277
203 200 191 170 147 138 130 115 99 84 73 62 54 49 44 43 44 48 53 53 53 60 67 69 69 69 65 55 38 20 5 352 344 337 334 337 340 343 345 345 344 344 344 345 346 346 346 346 344 342 342 341 341 342 340 338 336 334 331 327 325 325 324 323 323 322 320 318 318 319 320 319 318 318 317 315 314 313 310 303 298 294 289 283 280
184 186 179 164 147 132 112 96 85 71 61 56 50 41 26 11 354 347 355 2 3 3 2 0 358 353 346 342 338 333 326 322 320 317 316 317 320 324 327 329 330 329 328 329 330 329 328 327 325 323 320 317 317 316 314 313 311 311 311 309 309 312 312 311 312 311 309 309 309 310 311 311 312 314 313 312 312 312 309 304 299 296 292 286 282
197 224 238 267 296 9 49 51 47 40 32 25 19 14 10 9 4 354 349 348 349 349 348 346 346 342 335 327 323 320 318 317 318 319 320 319 317 317 319 320 321 320 318 317 316 314 312 310 307 305 303 301 300 298 297 297 296 296 297 298 299 302 303 303 305 304 304 305 307 308 310 311 311 312 312 311 311 310 308 303 299 295 290 285 283
255 273 288 297 300 302 303 305 310 318 325 333 339 340 337 341 348 349 347 345 346 347 347 346 346 345 342 337 333 332 331 330 330 329 327 322 317 316 316 314 313 312 310 309 308 307 305 303 301 300 298 297 297 296 296 296 295 295 296 297 299 301 302 303 304 303 303 304 306 306 308 308 309 310 310 309 309 309 307 304 300 295 289 284 282
264 274 283 290 294 297 296 294 295 297 302 307 311 311 305 300 300 306 315 324 333 339 342 339 335 334 332 330 328 326 325 326 327 327 323 317 311 309 308 306 304 304 303 303 303 302 301 301 300 300 300 300 299 299 298 298 298 298 296 296 298 299 298 299 299 298 298 300 300 301 302 304 305 307 307 308 308 308 308 307 304 299 293 288 284
274 279 284 287 290 294 295 296 298 300 306 311 313 313 307 292 283 288 291 296 304 311 314 313 310 308 306 305 304 304 303 304 306 305 303 299 296 294 294 294 294 294 295 295 296 297 298 298 299 299 299 298 297 297 297 296 296 296 296 295 295 295 294 294 294 294 296 297 298 298 300 302 303 304 304 305 305 304 304 303 302 300 298 293 290
275 280 284 288 292 294 298 304 310 317 323 324 320 316 313 312 312 304 286 283 286 283 279 281 283 284 285 284 285 286 286 286 286 285 283 282 281 281 282 283 283 285 286 288 289 291 292 293 295 296 296 295 296 296 296 296 296 296 297 297 297 296 295 294 293 293 293 294 295 296 297 297 298 298 298 299 300 299 298 298 298 297 295 294 293
282 285 289 292 296 299 301 303 306 308 307 305 302 300 298 298 295 286 275 269 267 265 265 268 273 276 278 279 279 280 280 280 280 279 279 279 278 278 279 280 280 281 283 286 289 292 295 296 297 298 298 298 298 298 298 298 298 297 297 297 296 295 294 292 290 289 289 289 289 290 291 292 293 294 294 295 296 296 296 296 295 293 291 291 292
290 290 290 289 289 290 289 289 288 287 285 286 288 289 289 289 287 285 282 277 272 269 266 266 268 272 274 276 277 278 279 280 281 281 281 281 281 282 283 283 282 282 283 284 287 290 294 297 298 299 301 302 301 301 301 302 302 302 301 301 300 299 298 297 295 294 293 293 292 292 292 293 293 294 295 295 295 295 295 295 295 293 291 290 289
285 283 282 281 279 278 278 277 276 276 275 276 279 280 282 283 282 282 283 283 283 282 279 277 277 278 279 281 283 285 286 289 291 292 294 296 296 297 298 300 301 303 305 305 304 303 303 304 305 306 307 308 308 308 309 309 309 308 308 307 307 306 306 305 304 303 302 301 301 299 298 298 297 297 295 294 294 295 295 294 294 292 290 289 288
272 272 273 273 273 273 274 274 274 274 274 275 276 276 277 278 278 278 280 282 284 286 286 286 286 285 283 283 285 288 293 296 298 300 302 303 305 307 310 314 317 319 321 323 324 325 324 324 322 320 319 320 321 321 321 320 319 317 316 316 314 312 311 310 308 307 307 306 304 304 303 302 301 301 299 296 295 296 295 295 295 293 291 290 288
272 273 274 274 274 274 274 275 276 278 279 279 279 278 277 275 275 276 278 280 283 286 288 292 295 297 296 294 295 298 302 303 304 305 306 307 310 314 318 322 323 323 324 326 327 328 329 328 327 325 327 329 330 329 329 327 325 324 324 321 318 318 318 317 315 314 314 313 310 308 306 304 303 303 301 298 296 296 296 296 296 295 294 293 289
277 277 277 277 277 278 278 277 277 279 280 281 280 280 279 278 278 279 280 282 284 287 291 295 299 303 304 306 310 315 319 320 321 323 325 327 330 331 332 332 331 329 327 326 326 325 324 324 325 325 325 325 322 320 318 318 317 316 317 316 316 319 320 318 316 317 317 317 315 314 311 309 309 311 309 305 302 301 299 298 297 296 295 293 290
275 275 275 275 276 277 276 276 276 277 277 278 279 280 280 280 282 283 283 284 287 290 294 300 304 308 312 316 322 328 333 337 341 345 347 348 349 350 349 346 343 340 337 334 331 327 324 324 325 324 321 318 315 312 311 310 311 313 315 318 320 321 319 317 316 318 319 319 318 316 314 310 308 307 305 304 305 304 303 301 299 297 294 292 290
272 271 270 270 270 270 270 270 272 274 276 278 280 281 281 283 285 286 286 289 292 295 302 312 321 324 328 333 338 343 348 354 360 3 5 5 5 4 2 360 356 353 349 345 341 336 331 329 328 325 323 321 320 317 315 314 314 315 317 318 316 314 312 312 313 314 314 313 312 310 309 307 303 299 296 295 295 296 297 298 299 299 297 294 291
269 267 266 266 266 267 270 273 275 277 280 281 281 281 281 283 284 283 283 284 288 295 309 330 347 352 353 356 360 4 9 15 18 20 21 20 18 15 12 9 5 1 357 352 347 342 339 337 334 332 330 328 326 323 321 319 318 315 312 309 306 305 306 307 308 306 305 304 303 302 301 300 300 300 300 299 298 295 293 292 293 295 295 294 293
265 263 263 264 265 267 270 273 276 280 282 283 282 282 282 280 277 273 272 273 281 27 65 67 64 57 50 43 38 36 38 39 39 37 35 32 29 25 22 19 15 10 5 359 353 348 344 342 340 338 336 333 331 329 325 322 319 315 311 307 304 302 302 302 301 300 299 299 298 297 296 296 296 297 298 300 301 300 298 295 292 291 290 290 292
261 260 260 261 262 265 266 269 272 277 279 280 281 281 280 280 276 270 255 111 92 88 85 84 81 77 73 67 61 56 54 51 49 47 45 42 39 36 32 29 25 21 16 11 6 1 356 352 350 348 346 342 339 335 331 326 322 317 313 309 306 303 300 298 296 295 293 292 291 292 292 292 292 293 293 293 292 292 292 292 292 292 292 292 292
257 257 256 256 257 258 259 262 267 269 269 269 268 263 257 246 215 158 127 112 103 98 95 92 88 84 79 74 70 65 61 57 54 51 48 45 42 39 36 32 29 26 24 20 17 13 10 6 3 0 358 355 352 349 345 341 335 330 324 320 315 312 308 305 302 299 297 294 293 292 291 291 291 292 293 292 289 287 287 286 286 288 290 291 292
249 243 240 239 236 233 232 232 228 225 217 207 197 181 161 149 140 131 122 116 110 105 100 95 89 83 77 72 67 61 57 53 49 45 42 39 36 33 30 28 26 24 22 20 18 16 14 11 8 5 3 1 359 357 354 351 347 343 338 332 327 322 317 313 309 306 304 301 299 297 296 294 293 293 292 291 289 287 286 284 283 283 283 282 284
177 147 157 167 169 167 163 160 159 155 148 145 145 141 136 131 128 123 118 113 107 101 96 89 81 73 65 59 54 49 45 41 38 35 32 30 27 25 23 22 22 20 18 17 16 14 12 9 7 5 3 2 0 359 358 356 354 351 347 342 337 332 328 324 319 316 313 310 306 303 301 300 298 296 296 295 293 292 290 288 286 285 282 280 279
103 106 115 126 131 131 130 130 129 130 130 130 131 131 129 125 121 118 113 103 92 83 76 69 61 50 43 39 36 34 32 29 27 26 24 22 20 19 17 17 16 15 14 14 13 11 8 6 4 3 2 1 0 360 359 358 356 354 351 348 346 342 338 332 327 323 319 314 310 307 305 303 302 301 300 299 298 297 296 295 293 291 288 285 283
119 113 113 113 115 115 116 118 119 120 123 127 129 130 128 123 117 109 93 76 59 46 38 33 28 22 18 17 17 17 16 14 13 14 14 13 13 13 12 11 11 10 9 9 8 6 4 2 1 360 359 358 358 357 357 356 355 353 351 351 350 347 341 335 330 327 323 317 313 311 308 306 305 305 304 303 302 301 299 297 296 294 293 291 288
140 131 121 113 113 113 114 117 118 122 131 140 145 153 157 149 139 88 22 10 3 358 358 357 355 355 354 355 358 0 360 360 1 2 2 3 4 4 4 5 5 4 4 4 2 1 359 358 358 357 355 354 353 352 352 352 351 349 350 351 349 346 342 339 337 334 329 323 317 314 311 309 308 307 306 306 305 304 302 300 298 296 294 292 289
181 181 186 203 206 197 182 172 170 191 210 212 217 234 245 255 273 286 296 311 321 325 329 332 336 337 338 340 345 347 347 349 350 350 351 352 353 353 355 356 356 357 357 357 357 356 354 354 353 353 351 350 350 349 348 348 348 347 347 347 345 343 342 342 341 339 336 331 324 318 314 311 309 307 307 306 305 304 304 303 302 299 295 292 288